Weather History for K1A5 - May, 2013

Change the Weather History Date:

Saturday, May 25, 2013

  Actual Average (KTOC) Record (KTOC)
Temperature  
Mean Temperature 56 °F -  
Max Temperature 75 °F 82 °F 84 °F (2014)
Min Temperature 36 °F 58 °F 60 °F (2015)
Degree Days  
Heating Degree Days 10    
Growing Degree Days 6 (Base 50)    
Moisture  
Dew Point 36 °F    
Average Humidity 59    
Maximum Humidity 96    
Minimum Humidity 18    
Precipitation  
Precipitation 0.00 in - - ()
Sea Level Pressure  
Sea Level Pressure 30.28 in    
Wind  
Wind Speed 1 mph (NW)    
Max Wind Speed 9 mph    
Max Gust Speed 18 mph    
Visibility 10 miles    
Events      
Averages and records for this station are not official NWS values.
T = Trace of Precipitation, MM = Missing Value Source: NWS Daily Summary

Daily Weather History Graph

Daily Weather History Graph

Search for Another Location

Airport or City:

Trip Planner

Search our weather history database for the weather conditions in past years. The results will help you decide how hot, cold, wet, or windy it might be!

Date:

Astronomy

May. 25, 2013 Rise Set
Actual Time 6:23 AM EDT 8:38 PM EDT
Civil Twilight 5:54 AM EDT 9:07 PM EDT
Nautical Twilight 5:18 AM EDT 9:42 PM EDT
Astronomical Twilight 4:40 AM EDT 10:21 PM EDT
Moon 9:25 PM EDT (5/25) 6:48 AM EDT (5/25)
Length of Visible Light 15h 13m
Length of Day
14h 15m
Full, 100% of the Moon is Illuminated
May 25
Full
May 31
Last Quarter
Jun 8
New
Jun 16
First Quarter
Jun 23
Full

Hourly Weather History & Observations

Time (EDT) Temp. Windchill Dew Point Humidity Pressure Visibility Wind Dir Wind Speed Gust Speed Precip Events Conditions
12:15 AM 44.1 °F - 40.8 °F 88% 30.27 in 10.0 mi Calm Calm - N/A   Clear
12:35 AM 43.2 °F 41.5 °F 39.6 °F 87% 30.28 in 10.0 mi West 3.5 mph - N/A   Clear
12:55 AM 42.8 °F - 39.9 °F 90% 30.28 in 10.0 mi Calm Calm - N/A   Clear
1:15 AM 41.7 °F - 38.5 °F 88% 30.28 in 10.0 mi Calm Calm - N/A   Clear
1:35 AM 41.7 °F - 39.0 °F 90% 30.28 in 10.0 mi Calm Calm - N/A   Clear
1:55 AM 41.0 °F - 38.5 °F 91% 30.28 in 10.0 mi Calm Calm - N/A   Clear
2:15 AM 41.0 °F - 38.3 °F 90% 30.28 in 10.0 mi Calm Calm - N/A   Clear
2:35 AM 40.1 °F - 37.9 °F 92% 30.29 in 10.0 mi Calm Calm - N/A   Clear
2:55 AM 40.1 °F - 38.3 °F 93% 30.29 in 10.0 mi Calm Calm - N/A   Clear
3:15 AM 38.8 °F - 36.5 °F 91% 30.29 in 10.0 mi Calm Calm - N/A   Clear
3:35 AM 38.8 °F - 37.0 °F 93% 30.29 in 10.0 mi Calm Calm - N/A   Clear
3:55 AM 38.3 °F - 36.5 °F 93% 30.29 in 10.0 mi Calm Calm - N/A   Clear
4:15 AM 37.8 °F - 36.3 °F 95% 30.30 in 10.0 mi Calm Calm - N/A   Clear
4:35 AM 38.1 °F - 36.7 °F 95% 30.29 in 10.0 mi Calm Calm - N/A   Clear
4:55 AM 37.8 °F - 36.5 °F 95% 30.29 in 10.0 mi Calm Calm - N/A   Clear
5:15 AM 37.2 °F - 35.6 °F 94% 30.30 in 10.0 mi Calm Calm - N/A   Clear
5:35 AM 37.6 °F - 36.5 °F 96% 30.31 in 10.0 mi Calm Calm - N/A   Clear
5:55 AM 36.5 °F - 35.2 °F 95% 30.31 in 10.0 mi Calm Calm - N/A   Clear
6:15 AM 36.7 °F - 35.6 °F 96% 30.32 in 1.5 mi Calm Calm - N/A   Scattered Clouds
6:35 AM 36.0 °F 33.3 °F 34.7 °F 95% 30.32 in 10.0 mi West 3.5 mph - N/A   Scattered Clouds
6:55 AM 36.3 °F - 34.9 °F 95% 30.33 in 10.0 mi Calm Calm - N/A   Clear
7:15 AM 37.4 °F - 36.1 °F 95% 30.34 in 10.0 mi Calm Calm - N/A   Clear
7:35 AM 39.0 °F - 37.8 °F 95% 30.35 in 10.0 mi Calm Calm - N/A   Clear
7:55 AM 40.5 °F - 39.2 °F 95% 30.35 in 10.0 mi Calm Calm - N/A   Clear
8:15 AM 42.6 °F - 41.0 °F 94% 30.35 in 10.0 mi Calm Calm - N/A   Clear
8:35 AM 44.8 °F - 40.8 °F 86% 30.35 in 10.0 mi Calm Calm - N/A   Clear
8:55 AM 46.6 °F - 40.6 °F 80% 30.35 in 10.0 mi Calm Calm - N/A   Clear
9:15 AM 48.7 °F - 40.8 °F 74% 30.35 in 10.0 mi Calm Calm - N/A   Clear
9:35 AM 51.1 °F - 40.1 °F 66% 30.35 in 10.0 mi Calm Calm - N/A   Clear
9:55 AM 53.6 °F - 40.3 °F 61% 30.35 in 10.0 mi Calm Calm - N/A   Clear
10:15 AM 56.3 °F - 38.3 °F 51% 30.35 in 10.0 mi Calm Calm - N/A   Clear
10:35 AM 57.4 °F - 32.5 °F 39% 30.34 in 10.0 mi Calm Calm - N/A   Clear
10:55 AM 59.5 °F - 36.5 °F 42% 30.34 in 10.0 mi Calm Calm - N/A   Clear
11:15 AM 61.3 °F - 30.4 °F 31% 30.33 in 10.0 mi Calm Calm - N/A   Clear
11:35 AM 62.4 °F - 30.4 °F 30% 30.33 in 10.0 mi Calm Calm - N/A   Clear
11:55 AM 63.1 °F - 30.0 °F 29% 30.33 in 10.0 mi Calm Calm - N/A   Clear
12:15 PM 66.0 °F - 33.8 °F 30% 30.32 in 10.0 mi Calm Calm - N/A   Clear
12:35 PM 66.9 °F - 28.9 °F 24% 30.30 in 10.0 mi Calm Calm - N/A   Clear
12:55 PM 68.2 °F - 28.9 °F 23% 30.30 in 10.0 mi Calm Calm - N/A   Clear
1:15 PM 69.3 °F - 31.3 °F 24% 30.28 in 10.0 mi Calm Calm - N/A   Clear
1:35 PM 70.5 °F - 33.6 °F 26% 30.27 in 10.0 mi Calm Calm - N/A   Clear
1:55 PM 71.4 °F - 33.4 °F 25% 30.27 in 10.0 mi Calm Calm - N/A   Clear
2:15 PM 73.6 °F - 35.1 °F 25% 30.25 in 10.0 mi North 3.5 mph - N/A   Clear
2:35 PM 74.3 °F - 30.7 °F 20% 30.25 in 10.0 mi North 4.6 mph - N/A   Clear
2:55 PM 75.4 °F - 32.4 °F 21% 30.24 in 10.0 mi NNW 8.1 mph - N/A   Clear
3:15 PM 75.2 °F - 29.8 °F 19% 30.23 in 10.0 mi NNW 8.1 mph - N/A   Clear
3:35 PM 75.4 °F - 28.6 °F 18% 30.23 in 10.0 mi North 9.2 mph - N/A   Clear
3:55 PM 75.2 °F - 32.5 °F 21% 30.23 in 10.0 mi NNW 8.1 mph 16.1 mph N/A   Clear
4:15 PM 75.6 °F - 30.0 °F 19% 30.22 in 10.0 mi NW 8.1 mph 18.4 mph N/A   Clear
4:35 PM 75.4 °F - 30.9 °F 20% 30.23 in 10.0 mi NW 6.9 mph 16.1 mph N/A   Clear
4:55 PM 75.2 °F - 30.7 °F 20% 30.22 in 10.0 mi North 5.8 mph 16.1 mph N/A   Clear
5:15 PM 75.2 °F - 32.2 °F 21% 30.22 in 10.0 mi NW 9.2 mph - N/A   Clear
5:35 PM 74.5 °F - 33.1 °F 22% 30.22 in 10.0 mi North 8.1 mph 17.3 mph N/A   Clear
5:55 PM 72.9 °F - 34.9 °F 25% 30.23 in 10.0 mi WNW 9.2 mph 17.3 mph N/A   Clear
6:15 PM 72.0 °F - 34.3 °F 25% 30.23 in 10.0 mi NW 8.1 mph - N/A   Clear
6:35 PM 71.4 °F - 33.8 °F 25% 30.23 in 10.0 mi NW 9.2 mph 18.4 mph N/A   Clear
6:55 PM 70.3 °F - 32.9 °F 25% 30.24 in 10.0 mi NW 9.2 mph 16.1 mph N/A   Clear
7:15 PM 69.8 °F - 32.5 °F 25% 30.23 in 10.0 mi WNW 4.6 mph - N/A   Clear
7:35 PM 68.7 °F - 32.0 °F 26% 30.24 in 10.0 mi WNW 6.9 mph - N/A   Clear
7:55 PM 68.0 °F - 30.7 °F 25% 30.25 in 10.0 mi NNW 4.6 mph - N/A   Clear
8:15 PM 65.3 °F - 33.4 °F 31% 30.25 in 10.0 mi Calm Calm - N/A   Clear
8:35 PM 62.4 °F - 37.2 °F 39% 30.25 in 10.0 mi Calm Calm - N/A   Clear
8:55 PM 57.4 °F - 42.8 °F 58% 30.25 in 10.0 mi Calm Calm - N/A   Clear
9:15 PM 52.7 °F - 45.1 °F 75% 30.25 in 10.0 mi Calm Calm - N/A   Clear
9:35 PM 51.8 °F - 43.5 °F 73% 30.25 in 10.0 mi WSW 3.5 mph - N/A   Clear
9:55 PM 51.1 °F - 42.1 °F 71% 30.25 in 10.0 mi WSW 3.5 mph - N/A   Clear
10:15 PM 51.4 °F - 41.2 °F 68% 30.25 in 10.0 mi Calm Calm - N/A   Clear
10:35 PM 51.1 °F - 41.4 °F 69% 30.23 in 10.0 mi Calm Calm - N/A   Clear
10:55 PM 49.3 °F - 42.4 °F 77% 30.25 in 10.0 mi Calm Calm - N/A   Clear
11:15 PM 48.6 °F - 41.9 °F 78% 30.25 in 10.0 mi Calm Calm - N/A   Clear
11:35 PM 47.1 °F - 41.2 °F 80% 30.25 in 10.0 mi Calm Calm - N/A   Clear
11:55 PM 47.5 °F - 42.3 °F 82% 30.25 in 10.0 mi Calm Calm - N/A   Clear